Voltar ao catálogo

STARLINK-37921

AtivoComunicaçõesVLEO
NORAD 69969·PAYLOAD·🇺🇸 United States

Lançado Jul 9, 2026 de Cape Canaveral Space Force Station

Loading…

Próximas Passagens (próximas 24 horas)

TLE

AtualizadoSource: CelesTrak SupGP

Época: Sep 15, 2026, 04:24 UTC

1 69969C 26157AC  26258.18381944  .00068515  00000+0  20230-2 0  2582
2 69969  53.1599 358.3539 0001207  89.5914 126.0227 15.34376121    19

Acompanhe STARLINK-37921 em tempo real com AllMySat

Download on the App Store